Terminal Aerodrome Forecast
Issued by NWS Boise, ID

Home | Current Version | Previous Version | Text Only | Print | Product List | Glossary On
Versions: 1 2 3 4 5 6 7 8 9 10 11 12
000
FTUS45 KBOI 271720
TAFBNO
TAF
KBNO 271720Z 2718/2818 VRB06KT P6SM FEW200
     FM272000 24010G18KT P6SM SKC
     FM280200 VRB06KT P6SM SKC=

USA.gov is the U.S. government's official web portal to all federal, state and local government web resources and services.